STARLINK-34665, 65089

Orbit data source: Space-Track

STARLINK-34665, 65089 is a payload satellite owned by SpaceX/Seattle (US) in LEO that was launched on Mon, 04 Aug 2025 UTC via an FALCON 9 launch vehicle from the Air Force Eastern Test Range (AFETR). Payload-class satellites include a variety of spacecraft equipped with specific instruments for various scientific and technological missions. These include communications satellites like Starlink; space stations such as the ISS; scientific satellites like the Hubble; Earth observation satellites from companies like Planet Labs, Umbra, and HawkEye 360; GPS; miniature CubeSats for education and research; and military/defense satellites.

Loading next visibility...
Identifier
65089, 2025-167M
Orbit
LEO
Country
Flag of USUS
Related business
Manufacturer
SpaceX/Seattle
Mission
Operational Commercial Communications
Bus & Motor
STARLINK V2MO, Unknown motor
Mass
575 kg wet, ~530 kg dry
Launch date (UTC)
2025-08-04 (9 months ago)
Launch vehicle
FALCON 9
Launch site
Air Force Eastern Test Range (AFETR)
Object type
Payload
Rocket body
Debris
Shape & HBR
Box + 2 Pan, 17.7 m
Radar Cross Section
36.964 m², Large (>1 m²)

Expand to show TLE details & history
Last TLE update: 9 hours ago

TLE from 9 hours ago
0 STARLINK-34665
1 65089U 25167M   26127.26063773  .00011349  00000-0  39477-3 0  9992
2 65089  53.1576 114.8643 0001130  78.0813 282.0314 15.30195091 42444
Epoch: 2026-05-07T06:15Z
TLE epoch observation values (Epoch: 2026-05-07T06:15:19.099Z)
Latitude
-0.00007°
Longitude
155.92534°
Altitude
475.968 km
Speed
7.629 km/s
True Right ascension
07h 39m 27s
True Declination
0° 00' 00"
Sunlit
Object was in daylight at epoch
Visualization orbit readout
Latitude
Unknown
Longitude
Unknown
Altitude
Unknown
Speed
Unknown
Apparent Right ascension
Unknown
Apparent Declination
Unknown
Sunlit
N/A
Visualization observer readout
Local Sidereal Time
23:44:59
Azimuth
Unknown
Elevation
Unknown
Doppler factor
Unknown
Orbital elements
Apogee altitude
476.261 km
Perigee altitude
474.712 km
Semi-major axis
6,853.624 km
Eccentricity
0.00011
Inclination
53.1576°
RAAN
114.8643°
Arg. of periapsis
78.0813°
True anomaly
282.01874°
Mean anomaly
282.0314°
Eccentric anomaly
282.02507°
Mean motion
3.82528 °/min
Orbital period
94.11 mins
BSTAR
0.00039477
Loading maneuver chart data...
Computing Atmospheric mass density...
Loading historical data...
Loading historical data...
Loading historical data...
Loading historical data...
Loading historical data...
Loading historical data...
Loading historical data...

Documentation

Showing up to 5 results
|